Location: Newark
(33.2833°N, 8.3333°W)
Time: 14:19:15
(UTC+00:00)

Hubble Space Telescope - Pass Details

Date: 18 September 2019
Orbit: 536 x 540 km, 28.5° (Epoch: 21 October)

Event Time Altitude Azimuth Distance (km) Brightness Sun altitude
Exits shadow 04:55:23 35° 218° (SW) 863 1.4 -18.0°
Maximum altitude 04:56:19 42° 183° (S) 771 1.4 -17.8°
Drops below altitude 10° 05:00:13 10° 112° (ESE) 1,780 4.2 -17.0°
Sets 05:02:33 0° 105° (ESE) 2,671 5.4 -16.5°
